QPF
0.01 0.01 0.01 0.01 0.02 0.02 0.02 0.01 0.01 0.02 0.03 0.03 0.02 0.03 0.05 0.06 0.06 0.05 0.03 0.02 0.02 0.02 0.05 0.09 0.14 0.13 0.13 0.13 0.14 0.14 0.13 0.12 0.11 0.11 0.12 0.12 0.11 0.09 0.09 0.04 0.03 0.02 0.03 0.01 0.02 0.02 0.03 0.03 0.02
0.00 0.01 0.01 0.01 0.02 0.02 0.01 0.01 0.02 0.03 0.02 0.02 0.04 0.05 0.05 0.03 0.03 0.03 0.05 0.03 0.03 0.02 0.03 0.06 0.12 0.11 0.09 0.11 0.11 0.11 0.10 0.10 0.09 0.12 0.12 0.11 0.11 0.10 0.09 0.05 0.04 0.04 0.04 0.03 0.01 0.02 0.02 0.02 0.01
0.00 0.00 0.01 0.01 0.01 0.02 0.02 0.01 0.02 0.02 0.01 0.01 0.03 0.04 0.03 0.03 0.03 0.03 0.04 0.02 0.03 0.03 0.02 0.04 0.12 0.11 0.09 0.12 0.12 0.12 0.10 0.09 0.08 0.08 0.10 0.09 0.09 0.09 0.08 0.05 0.03 0.04 0.05 0.05 0.02 0.02 0.02 0.02 0.01
0.00 0.01 0.00 0.01 0.01 0.01 0.01 0.01 0.01 0.03 0.04 0.02 0.02 0.03 0.01 0.03 0.04 0.03 0.03 0.02 0.02 0.03 0.03 0.06 0.09 0.13 0.13 0.14 0.11 0.11 0.12 0.10 0.11 0.08 0.08 0.07 0.07 0.07 0.06 0.04 0.02 0.03 0.03 0.02 0.01 0.01 0.02 0.02 0.03
0.00 0.01 0.01 0.02 0.02 0.01 0.01 0.01 0.01 0.03 0.04 0.03 0.02 0.03 0.02 0.04 0.04 0.03 0.02 0.02 0.02 0.02 0.03 0.05 0.09 0.10 0.12 0.12 0.09 0.09 0.09 0.08 0.08 0.07 0.06 0.05 0.04 0.05 0.05 0.04 0.04 0.03 0.02 0.01 0.01 0.01 0.01 0.02 0.02
0.00 0.00 0.01 0.02 0.02 0.03 0.02 0.01 0.01 0.02 0.02 0.02 0.02 0.03 0.03 0.06 0.06 0.04 0.02 0.02 0.03 0.03 0.03 0.03 0.07 0.09 0.10 0.09 0.08 0.07 0.06 0.04 0.04 0.05 0.05 0.04 0.03 0.02 0.01 0.02 0.03 0.03 0.01 0.01 0.01 0.01 0.01 0.01 0.03
0.00 0.00 0.01 0.02 0.02 0.03 0.02 0.01 0.02 0.02 0.03 0.03 0.04 0.03 0.03 0.06 0.06 0.04 0.03 0.03 0.04 0.04 0.03 0.03 0.05 0.07 0.09 0.09 0.08 0.07 0.05 0.04 0.05 0.04 0.04 0.03 0.03 0.02 0.01 0.01 0.02 0.02 0.01 0.01 0.01 0.01 0.01 0.01 0.03
0.00 0.00 0.01 0.01 0.02 0.03 0.02 0.02 0.02 0.03 0.04 0.03 0.06 0.08 0.07 0.06 0.05 0.05 0.04 0.04 0.04 0.03 0.02 0.02 0.02 0.02 0.03 0.04 0.04 0.03 0.03 0.03 0.03 0.02 0.02 0.02 0.01 0.01 0.00 0.01 0.01 0.01 0.01 0.01 0.01 0.01 0.01 0.01 0.02
0.00 0.01 0.01 0.02 0.03 0.03 0.02 0.03 0.02 0.01 0.02 0.03 0.05 0.08 0.07 0.03 0.02 0.03 0.04 0.02 0.02 0.01 0.01 0.01 0.01 0.00 0.00 0.00 0.00 0.01 0.01 0.01 0.00 0.00 0.00 0.00 0.00 0.00 0.00 0.00 0.01 0.02 0.02 0.01 0.01 0.02 0.02 0.01 0.01
0.01 0.02 0.02 0.01 0.02 0.02 0.02 0.03 0.03 0.03 0.03 0.04 0.05 0.06 0.04 0.01 0.01 0.01 0.01 0.01 0.01 0.00 0.00 0.00 0.00 0.00 0.00 0.00 0.00 0.00 0.00 0.00 0.00 0.00 0.00 0.00 0.00 0.00 0.00 0.00 0.00 0.01 0.01 0.01 0.01 0.01 0.01 0.00 0.01
0.01 0.02 0.01 0.00 0.01 0.02 0.02 0.03 0.03 0.03 0.04 0.04 0.05 0.04 0.03 0.01 0.00 0.00 0.00 0.00 0.00 0.00 0.00 0.00 0.00 0.00 0.00 0.00 0.00 0.00 0.00 0.00 0.00 0.00 0.00 0.00 0.00 0.00 0.00 0.00 0.00 0.01 0.01 0.01 0.01 0.01 0.00 0.00 0.01
0.01 0.01 0.02 0.01 0.01 0.02 0.02 0.03 0.03 0.03 0.03 0.02 0.03 0.04 0.03 0.01 0.00 0.00 0.00 0.00 0.00 0.00 0.00 0.00 0.00 0.00 0.00 0.00 0.00 0.00 0.00 0.00 0.00 0.00 0.00 0.00 0.00 0.00 0.00 0.00 0.00 0.00 0.00 0.01 0.01 0.01 0.00 0.00 0.01
0.02 0.01 0.02 0.02 0.01 0.02 0.04 0.04 0.05 0.03 0.02 0.02 0.02 0.03 0.03 0.02 0.01 0.00 0.00 0.00 0.00 0.00 0.00 0.00 0.00 0.00 0.00 0.00 0.00 0.00 0.00 0.00 0.00 0.00 0.00 0.00 0.00 0.00 0.00 0.00 0.00 0.00 0.00 0.00 0.01 0.00 0.00 0.01 0.01
0.01 0.01 0.02 0.02 0.02 0.03 0.05 0.04 0.05 0.04 0.03 0.03 0.02 0.02 0.02 0.01 0.00 0.00 0.00 0.00 0.00 0.00 0.00 0.00 0.00 0.00 0.00 0.00 0.00 0.00 0.00 0.00 0.00 0.00 0.00 0.00 0.00 0.00 0.00 0.00 0.00 0.00 0.00 0.00 0.01 0.00 0.00 0.01 0.02
0.02 0.02 0.03 0.02 0.02 0.03 0.05 0.07 0.05 0.04 0.03 0.03 0.04 0.04 0.03 0.02 0.01 0.00 0.00 0.00 0.00 0.00 0.00 0.00 0.00 0.00 0.00 0.00 0.00 0.00 0.00 0.00 0.00 0.00 0.00 0.00 0.00 0.00 0.00 0.00 0.00 0.01 0.01 0.01 0.01 0.01 0.01 0.01 0.02
0.03 0.04 0.03 0.02 0.02 0.02 0.04 0.06 0.03 0.03 0.04 0.03 0.04 0.06 0.05 0.03 0.02 0.01 0.00 0.00 0.00 0.00 0.00 0.00 0.00 0.00 0.00 0.00 0.00 0.00 0.00 0.00 0.00 0.00 0.00 0.00 0.00 0.00 0.00 0.00 0.00 0.01 0.00 0.01 0.02 0.02 0.02 0.02 0.03
0.05 0.04 0.02 0.02 0.02 0.03 0.03 0.03 0.02 0.02 0.03 0.03 0.04 0.05 0.05 0.03 0.02 0.01 0.00 0.00 0.01 0.01 0.00 0.00 0.00 0.00 0.00 0.00 0.00 0.00 0.00 0.00 0.00 0.00 0.00 0.00 0.00 0.00 0.00 0.00 0.00 0.00 0.00 0.00 0.01 0.01 0.02 0.04 0.04
0.05 0.04 0.03 0.02 0.02 0.04 0.05 0.04 0.02 0.02 0.03 0.04 0.04 0.04 0.04 0.04 0.02 0.01 0.01 0.02 0.01 0.00 0.00 0.00 0.00 0.00 0.00 0.00 0.00 0.00 0.00 0.00 0.00 0.00 0.00 0.00 0.00 0.00 0.00 0.01 0.00 0.00 0.00 0.01 0.00 0.02 0.03 0.04 0.04
0.04 0.05 0.04 0.02 0.03 0.04 0.06 0.05 0.04 0.03 0.03 0.03 0.03 0.03 0.04 0.05 0.03 0.02 0.01 0.01 0.00 0.00 0.00 0.00 0.00 0.00 0.00 0.00 0.00 0.00 0.00 0.00 0.00 0.00 0.00 0.00 0.00 0.00 0.00 0.00 0.01 0.00 0.01 0.01 0.01 0.02 0.02 0.03 0.04
0.04 0.06 0.06 0.04 0.03 0.04 0.05 0.05 0.04 0.02 0.02 0.02 0.02 0.02 0.02 0.04 0.04 0.03 0.01 0.00 0.00 0.00 0.00 0.00 0.00 0.00 0.00 0.00 0.00 0.00 0.00 0.00 0.00 0.00 0.00 0.00 0.00 0.00 0.00 0.00 0.00 0.00 0.01 0.01 0.01 0.02 0.02 0.02 0.02
0.05 0.05 0.05 0.05 0.04 0.04 0.05 0.05 0.04 0.03 0.03 0.02 0.02 0.02 0.02 0.03 0.04 0.03 0.02 0.01 0.00 0.00 0.00 0.00 0.00 0.00 0.00 0.00 0.00 0.00 0.00 0.00 0.00 0.00 0.00 0.00 0.00 0.00 0.00 0.00 0.00 0.00 0.00 0.01 0.01 0.01 0.03 0.03 0.02
0.05 0.04 0.03 0.04 0.04 0.03 0.03 0.05 0.04 0.03 0.03 0.02 0.01 0.01 0.01 0.02 0.03 0.03 0.02 0.01 0.01 0.00 0.00 0.00 0.00 0.00 0.00 0.00 0.00 0.00 0.00 0.00 0.00 0.00 0.00 0.00 0.00 0.00 0.00 0.00 0.00 0.00 0.00 0.00 0.00 0.00 0.01 0.02 0.03
0.03 0.03 0.03 0.04 0.04 0.03 0.02 0.02 0.03 0.03 0.02 0.01 0.01 0.01 0.01 0.01 0.02 0.02 0.02 0.02 0.01 0.00 0.00 0.00 0.00 0.00 0.00 0.00 0.00 0.00 0.00 0.00 0.00 0.00 0.00 0.00 0.00 0.00 0.00 0.00 0.00 0.00 0.00 0.00 0.00 0.00 0.00 0.01 0.02
0.02 0.03 0.04 0.05 0.04 0.03 0.01 0.02 0.02 0.02 0.01 0.01 0.01 0.01 0.00 0.01 0.01 0.01 0.02 0.02 0.01 0.00 0.00 0.00 0.00 0.00 0.00 0.00 0.00 0.00 0.00 0.00 0.00 0.00 0.00 0.00 0.00 0.00 0.00 0.00 0.00 0.00 0.00 0.00 0.00 0.00 0.00 0.00 0.01
0.02 0.03 0.05 0.06 0.05 0.03 0.01 0.01 0.01 0.00 0.00 0.00 0.00 0.01 0.00 0.00 0.01 0.01 0.01 0.01 0.01 0.00 0.00 0.00 0.00 0.00 0.00 0.00 0.00 0.00 0.00 0.00 0.00 0.00 0.00 0.00 0.00 0.00 0.00 0.00 0.00 0.00 0.00 0.00 0.00 0.00 0.00 0.00 0.01
0.02 0.02 0.03 0.04 0.03 0.03 0.01 0.01 0.00 0.00 0.00 0.00 0.00 0.01 0.00 0.00 0.00 0.01 0.01 0.01 0.01 0.01 0.00 0.00 0.00 0.00 0.00 0.00 0.00 0.00 0.00 0.00 0.00 0.00 0.00 0.00 0.00 0.00 0.00 0.00 0.00 0.00 0.00 0.00 0.00 0.00 0.00 0.00 0.00
0.01 0.01 0.01 0.02 0.02 0.03 0.02 0.01 0.00 0.00 0.00 0.00 0.00 0.00 0.00 0.00 0.00 0.01 0.01 0.01 0.01 0.01 0.00 0.00 0.00 0.00 0.00 0.00 0.00 0.00 0.00 0.00 0.00 0.00 0.00 0.00 0.00 0.00 0.00 0.00 0.00 0.00 0.00 0.00 0.00 0.00 0.00 0.00 0.00
0.02 0.02 0.02 0.02 0.03 0.02 0.01 0.00 0.00 0.00 0.00 0.00 0.00 0.00 0.00 0.00 0.00 0.01 0.01 0.01 0.01 0.01 0.01 0.00 0.00 0.00 0.00 0.00 0.00 0.00 0.00 0.00 0.00 0.00 0.00 0.00 0.00 0.00 0.00 0.00 0.00 0.00 0.00 0.00 0.00 0.00 0.00 0.00 0.00
0.02 0.02 0.02 0.02 0.02 0.02 0.02 0.01 0.00 0.00 0.00 0.00 0.00 0.01 0.01 0.00 0.00 0.00 0.01 0.01 0.01 0.01 0.01 0.00 0.00 0.00 0.00 0.00 0.00 0.00 0.00 0.00 0.00 0.00 0.00 0.00 0.00 0.00 0.00 0.00 0.00 0.00 0.00 0.00 0.00 0.00 0.00 0.00 0.00
0.01 0.01 0.01 0.02 0.02 0.01 0.01 0.01 0.00 0.00 0.00 0.00 0.00 0.01 0.01 0.01 0.01 0.01 0.01 0.02 0.01 0.01 0.01 0.00 0.00 0.00 0.00 0.00 0.00 0.00 0.00 0.00 0.00 0.00 0.00 0.00 0.00 0.00 0.00 0.00 0.00 0.00 0.00 0.00 0.00 0.00 0.00 0.00 0.00
MSLP
1011.34 1011.73 1012.26 1012.84 1013.39 1013.85 1014.18 1014.35 1014.39 1014.35 1014.29 1014.26 1014.31 1014.44 1014.62 1014.80 1014.92 1014.94 1014.82 1014.59 1014.27 1013.95 1013.69 1013.55 1013.56 1013.70 1013.95 1014.22 1014.48 1014.67 1014.78 1014.83 1014.86 1014.90 1015.00 1015.17 1015.39 1015.63 1015.84 1015.98 1016.03 1015.99 1015.88 1015.76 1015.65 1015.58 1015.56 1015.59 1015.62
1011.53 1012.01 1012.59 1013.20 1013.74 1014.15 1014.40 1014.48 1014.42 1014.28 1014.13 1014.04 1014.06 1014.17 1014.37 1014.58 1014.74 1014.80 1014.74 1014.55 1014.28 1014.01 1013.80 1013.71 1013.77 1013.97 1014.25 1014.58 1014.86 1015.08 1015.21 1015.26 1015.27 1015.30 1015.37 1015.49 1015.67 1015.86 1016.04 1016.15 1016.17 1016.12 1016.02 1015.91 1015.82 1015.77 1015.77 1015.80 1015.83
1011.80 1012.35 1012.96 1013.57 1014.08 1014.45 1014.63 1014.63 1014.50 1014.29 1014.09 1013.96 1013.95 1014.05 1014.23 1014.45 1014.62 1014.71 1014.67 1014.53 1014.32 1014.10 1013.96 1013.93 1014.06 1014.30 1014.64 1014.99 1015.30 1015.52 1015.65 1015.70 1015.69 1015.69 1015.72 1015.81 1015.94 1016.09 1016.21 1016.29 1016.30 1016.25 1016.15 1016.06 1015.99 1015.96 1015.97 1016.01 1016.03
1012.14 1012.71 1013.34 1013.92 1014.40 1014.72 1014.86 1014.83 1014.66 1014.43 1014.22 1014.07 1014.04 1014.11 1014.27 1014.46 1014.62 1014.70 1014.68 1014.56 1014.40 1014.26 1014.18 1014.23 1014.41 1014.71 1015.07 1015.43 1015.74 1015.96 1016.07 1016.10 1016.07 1016.04 1016.04 1016.09 1016.18 1016.28 1016.38 1016.42 1016.42 1016.36 1016.28 1016.21 1016.16 1016.15 1016.17 1016.20 1016.20
1012.50 1013.08 1013.68 1014.23 1014.67 1014.96 1015.08 1015.05 1014.91 1014.71 1014.52 1014.39 1014.35 1014.41 1014.53 1014.67 1014.78 1014.82 1014.78 1014.69 1014.57 1014.48 1014.47 1014.58 1014.82 1015.14 1015.51 1015.87 1016.16 1016.34 1016.42 1016.41 1016.36 1016.30 1016.28 1016.30 1016.36 1016.44 1016.51 1016.54 1016.53 1016.47 1016.40 1016.34 1016.30 1016.29 1016.31 1016.33 1016.30
1012.88 1013.42 1013.97 1014.46 1014.86 1015.14 1015.27 1015.29 1015.21 1015.09 1014.97 1014.90 1014.88 1014.92 1014.99 1015.06 1015.10 1015.09 1015.01 1014.91 1014.81 1014.77 1014.82 1014.98 1015.24 1015.58 1015.93 1016.25 1016.49 1016.63 1016.66 1016.62 1016.54 1016.46 1016.43 1016.44 1016.50 1016.56 1016.62 1016.64 1016.61 1016.55 1016.48 1016.42 1016.38 1016.37 1016.37 1016.35 1016.30
1013.25 1013.72 1014.19 1014.62 1014.97 1015.24 1015.41 1015.50 1015.53 1015.53 1015.52 1015.53 1015.55 1015.59 1015.61 1015.62 1015.57 1015.48 1015.35 1015.22 1015.12 1015.10 1015.18 1015.37 1015.65 1015.97 1016.29 1016.55 1016.73 1016.80 1016.78 1016.70 1016.60 1016.52 1016.49 1016.51 1016.57 1016.64 1016.69 1016.70 1016.66 1016.59 1016.50 1016.42 1016.36 1016.32 1016.29 1016.25 1016.16
1013.58 1013.96 1014.34 1014.69 1014.99 1015.26 1015.48 1015.66 1015.82 1015.95 1016.07 1016.18 1016.26 1016.31 1016.31 1016.24 1016.12 1015.94 1015.75 1015.58 1015.47 1015.45 1015.54 1015.73 1016.00 1016.29 1016.56 1016.75 1016.85 1016.86 1016.79 1016.67 1016.56 1016.49 1016.48 1016.52 1016.59 1016.67 1016.71 1016.71 1016.66 1016.56 1016.45 1016.33 1016.24 1016.16 1016.10 1016.01 1015.89
1013.88 1014.16 1014.43 1014.69 1014.94 1015.20 1015.46 1015.73 1016.01 1016.29 1016.54 1016.76 1016.91 1016.98 1016.96 1016.85 1016.65 1016.41 1016.15 1015.94 1015.80 1015.78 1015.86 1016.04 1016.28 1016.52 1016.73 1016.85 1016.89 1016.83 1016.72 1016.59 1016.48 1016.43 1016.44 1016.50 1016.59 1016.67 1016.71 1016.69 1016.61 1016.48 1016.32 1016.17 1016.03 1015.92 1015.81 1015.69 1015.54
1014.15 1014.33 1014.50 1014.66 1014.85 1015.08 1015.37 1015.70 1016.08 1016.47 1016.84 1017.16 1017.39 1017.50 1017.48 1017.33 1017.09 1016.79 1016.49 1016.24 1016.08 1016.03 1016.10 1016.26 1016.47 1016.67 1016.82 1016.88 1016.86 1016.76 1016.62 1016.49 1016.39 1016.37 1016.40 1016.49 1016.59 1016.67 1016.69 1016.64 1016.52 1016.35 1016.15 1015.96 1015.78 1015.63 1015.50 1015.36 1015.20
1014.40 1014.49 1014.56 1014.63 1014.75 1014.93 1015.21 1015.57 1016.01 1016.48 1016.94 1017.34 1017.63 1017.78 1017.78 1017.63 1017.36 1017.04 1016.71 1016.44 1016.26 1016.20 1016.26 1016.40 1016.58 1016.74 1016.85 1016.88 1016.82 1016.70 1016.55 1016.43 1016.35 1016.35 1016.41 1016.51 1016.61 1016.68 1016.68 1016.59 1016.43 1016.21 1015.98 1015.75 1015.56 1015.39 1015.25 1015.10 1014.95
1014.64 1014.66 1014.65 1014.63 1014.67 1014.79 1015.03 1015.37 1015.82 1016.32 1016.83 1017.28 1017.62 1017.81 1017.83 1017.70 1017.44 1017.11 1016.79 1016.51 1016.33 1016.28 1016.33 1016.46 1016.62 1016.77 1016.86 1016.87 1016.81 1016.69 1016.56 1016.45 1016.40 1016.41 1016.48 1016.58 1016.67 1016.72 1016.68 1016.55 1016.35 1016.11 1015.85 1015.61 1015.41 1015.25 1015.12 1015.00 1014.87
1014.89 1014.87 1014.79 1014.70 1014.65 1014.70 1014.86 1015.15 1015.56 1016.05 1016.56 1017.02 1017.39 1017.61 1017.66 1017.56 1017.33 1017.03 1016.73 1016.47 1016.31 1016.26 1016.32 1016.46 1016.63 1016.78 1016.87 1016.90 1016.85 1016.76 1016.65 1016.57 1016.54 1016.57 1016.64 1016.73 1016.79 1016.80 1016.72 1016.55 1016.32 1016.06 1015.79 1015.56 1015.38 1015.25 1015.16 1015.08 1014.99
1015.18 1015.13 1015.00 1014.85 1014.73 1014.68 1014.76 1014.96 1015.30 1015.73 1016.20 1016.64 1017.01 1017.25 1017.34 1017.28 1017.09 1016.84 1016.57 1016.35 1016.22 1016.19 1016.27 1016.43 1016.62 1016.79 1016.92 1016.99 1016.98 1016.93 1016.86 1016.81 1016.80 1016.82 1016.88 1016.94 1016.96 1016.92 1016.81 1016.61 1016.36 1016.08 1015.83 1015.62 1015.48 1015.41 1015.37 1015.35 1015.32
1015.51 1015.44 1015.29 1015.09 1014.90 1014.77 1014.75 1014.86 1015.10 1015.44 1015.84 1016.25 1016.60 1016.84 1016.96 1016.94 1016.80 1016.60 1016.38 1016.20 1016.10 1016.11 1016.21 1016.40 1016.62 1016.84 1017.02 1017.14 1017.19 1017.19 1017.17 1017.14 1017.14 1017.16 1017.18 1017.20 1017.18 1017.09 1016.94 1016.71 1016.45 1016.18 1015.95 1015.79 1015.70 1015.68 1015.71 1015.76 1015.78
1015.86 1015.79 1015.63 1015.40 1015.16 1014.97 1014.86 1014.87 1015.01 1015.25 1015.57 1015.92 1016.23 1016.47 1016.61 1016.63 1016.54 1016.38 1016.21 1016.08 1016.01 1016.04 1016.18 1016.39 1016.65 1016.92 1017.15 1017.33 1017.45 1017.52 1017.54 1017.54 1017.54 1017.54 1017.53 1017.50 1017.43 1017.30 1017.11 1016.87 1016.60 1016.35 1016.15 1016.02 1015.98 1016.02 1016.11 1016.21 1016.30
1016.21 1016.15 1015.99 1015.75 1015.49 1015.25 1015.07 1015.00 1015.04 1015.19 1015.42 1015.70 1015.97 1016.20 1016.34 1016.39 1016.34 1016.23 1016.10 1016.00 1015.96 1016.02 1016.17 1016.41 1016.70 1017.01 1017.31 1017.55 1017.74 1017.86 1017.93 1017.95 1017.95 1017.93 1017.89 1017.81 1017.70 1017.53 1017.31 1017.06 1016.80 1016.57 1016.39 1016.29 1016.29 1016.36 1016.50 1016.65 1016.78
1016.54 1016.48 1016.33 1016.10 1015.84 1015.58 1015.36 1015.22 1015.17 1015.23 1015.38 1015.59 1015.81 1016.01 1016.16 1016.23 1016.22 1016.15 1016.06 1015.98 1015.96 1016.03 1016.19 1016.44 1016.75 1017.11 1017.45 1017.76 1018.01 1018.19 1018.30 1018.35 1018.35 1018.31 1018.24 1018.13 1017.98 1017.78 1017.55 1017.30 1017.04 1016.82 1016.66 1016.58 1016.59 1016.68 1016.82 1017.00 1017.15
1016.78 1016.74 1016.62 1016.42 1016.17 1015.90 1015.66 1015.46 1015.35 1015.33 1015.39 1015.53 1015.70 1015.88 1016.02 1016.11 1016.13 1016.10 1016.04 1015.99 1015.98 1016.05 1016.21 1016.46 1016.79 1017.17 1017.55 1017.92 1018.22 1018.46 1018.62 1018.70 1018.71 1018.67 1018.57 1018.44 1018.27 1018.06 1017.82 1017.57 1017.33 1017.12 1016.96 1016.88 1016.87 1016.94 1017.07 1017.24 1017.40
1016.93 1016.91 1016.81 1016.65 1016.43 1016.17 1015.91 1015.68 1015.49 1015.39 1015.38 1015.44 1015.57 1015.72 1015.86 1015.97 1016.03 1016.04 1016.02 1015.99 1015.99 1016.06 1016.21 1016.45 1016.79 1017.18 1017.60 1018.00 1018.36 1018.65 1018.86 1018.97 1019.01 1018.98 1018.88 1018.74 1018.57 1018.36 1018.13 1017.89 1017.66 1017.46 1017.29 1017.19 1017.14 1017.17 1017.26 1017.39 1017.54
1016.97 1016.97 1016.91 1016.78 1016.59 1016.35 1016.07 1015.79 1015.54 1015.36 1015.26 1015.26 1015.33 1015.45 1015.60 1015.74 1015.85 1015.90 1015.93 1015.93 1015.95 1016.02 1016.17 1016.40 1016.73 1017.13 1017.57 1018.01 1018.42 1018.76 1019.02 1019.18 1019.25 1019.24 1019.17 1019.04 1018.88 1018.69 1018.48 1018.26 1018.04 1017.84 1017.66 1017.52 1017.43 1017.40 1017.42 1017.49 1017.60
1016.91 1016.94 1016.92 1016.83 1016.67 1016.42 1016.12 1015.78 1015.46 1015.19 1015.00 1014.92 1014.93 1015.04 1015.20 1015.38 1015.54 1015.66 1015.75 1015.80 1015.86 1015.94 1016.08 1016.31 1016.63 1017.03 1017.48 1017.95 1018.40 1018.79 1019.10 1019.32 1019.44 1019.47 1019.43 1019.33 1019.20 1019.04 1018.86 1018.66 1018.47 1018.27 1018.07 1017.90 1017.76 1017.65 1017.60 1017.60 1017.66
1016.81 1016.87 1016.89 1016.83 1016.67 1016.41 1016.07 1015.66 1015.25 1014.88 1014.59 1014.43 1014.40 1014.49 1014.66 1014.89 1015.12 1015.33 1015.49 1015.61 1015.71 1015.82 1015.97 1016.19 1016.50 1016.90 1017.36 1017.85 1018.33 1018.77 1019.14 1019.41 1019.58 1019.66 1019.67 1019.61 1019.51 1019.39 1019.24 1019.08 1018.91 1018.72 1018.52 1018.32 1018.13 1017.96 1017.83 1017.76 1017.75
1016.73 1016.82 1016.87 1016.82 1016.66 1016.36 1015.95 1015.47 1014.95 1014.47 1014.09 1013.85 1013.77 1013.85 1014.05 1014.33 1014.64 1014.94 1015.19 1015.39 1015.55 1015.69 1015.86 1016.09 1016.39 1016.78 1017.24 1017.74 1018.25 1018.73 1019.15 1019.47 1019.70 1019.83 1019.87 1019.86 1019.80 1019.72 1019.61 1019.49 1019.34 1019.18 1018.98 1018.77 1018.55 1018.33 1018.15 1018.00 1017.93
1016.71 1016.84 1016.90 1016.85 1016.66 1016.31 1015.83 1015.25 1014.63 1014.05 1013.58 1013.27 1013.15 1013.22 1013.44 1013.78 1014.17 1014.56 1014.90 1015.18 1015.41 1015.60 1015.79 1016.02 1016.32 1016.70 1017.15 1017.66 1018.18 1018.69 1019.14 1019.51 1019.78 1019.95 1020.04 1020.07 1020.05 1020.00 1019.94 1019.85 1019.74 1019.60 1019.43 1019.23 1019.00 1018.76 1018.53 1018.34 1018.20
1016.81 1016.95 1017.01 1016.94 1016.71 1016.30 1015.74 1015.07 1014.36 1013.69 1013.14 1012.77 1012.62 1012.68 1012.93 1013.32 1013.78 1014.25 1014.68 1015.03 1015.32 1015.56 1015.77 1016.01 1016.30 1016.67 1017.11 1017.61 1018.14 1018.66 1019.13 1019.53 1019.83 1020.04 1020.16 1020.22 1020.24 1020.23 1020.20 1020.15 1020.08 1019.98 1019.84 1019.67 1019.45 1019.21 1018.96 1018.74 1018.57
1017.01 1017.15 1017.19 1017.09 1016.80 1016.33 1015.70 1014.95 1014.17 1013.43 1012.83 1012.42 1012.25 1012.31 1012.58 1013.00 1013.52 1014.05 1014.54 1014.95 1015.29 1015.57 1015.81 1016.05 1016.34 1016.69 1017.12 1017.60 1018.12 1018.64 1019.11 1019.52 1019.84 1020.07 1020.22 1020.31 1020.36 1020.38 1020.38 1020.37 1020.34 1020.29 1020.20 1020.06 1019.88 1019.67 1019.43 1019.20 1019.01
1017.27 1017.40 1017.41 1017.25 1016.91 1016.38 1015.69 1014.89 1014.06 1013.29 1012.66 1012.23 1012.05 1012.11 1012.39 1012.84 1013.37 1013.94 1014.46 1014.92 1015.30 1015.60 1015.86 1016.12 1016.40 1016.75 1017.16 1017.62 1018.12 1018.62 1019.08 1019.49 1019.82 1020.06 1020.23 1020.34 1020.41 1020.46 1020.50 1020.53 1020.54 1020.54 1020.50 1020.41 1020.28 1020.11 1019.90 1019.69 1019.50
1017.55 1017.64 1017.59 1017.38 1016.98 1016.39 1015.66 1014.83 1013.99 1013.22 1012.59 1012.17 1011.99 1012.05 1012.33 1012.77 1013.30 1013.87 1014.41 1014.89 1015.28 1015.61 1015.89 1016.16 1016.45 1016.79 1017.19 1017.63 1018.11 1018.58 1019.03 1019.43 1019.75 1020.00 1020.18 1020.31 1020.41 1020.49 1020.56 1020.63 1020.69 1020.74 1020.75 1020.72 1020.64 1020.52 1020.36 1020.18 1020.01
1017.75 1017.79 1017.68 1017.39 1016.93 1016.30 1015.54 1014.71 1013.89 1013.14 1012.54 1012.15 1011.98 1012.04 1012.30 1012.72 1013.23 1013.78 1014.30 1014.78 1015.19 1015.53 1015.84 1016.13 1016.44 1016.79 1017.18 1017.61 1018.07 1018.52 1018.95 1019.33 1019.65 1019.91 1020.11 1020.26 1020.39 1020.50 1020.62 1020.73 1020.83 1020.91 1020.97 1020.99 1020.96 1020.89 1020.78 1020.65 1020.51
Thickness
5797 5800 5802 5795 5783 5775 5767 5770 5776 5772 5773 5776 5778 5776 5769 5763 5759 5751 5764 5773 5775 5774 5771 5768 5766 5765 5765 5764 5763 5762 5761 5760 5759 5758 5757 5755 5753 5753 5752 5752 5751 5751 5750 5750 5749 5749 5750 5750 5750
5798 5799 5795 5787 5774 5763 5761 5770 5770 5771 5774 5776 5775 5773 5767 5761 5764 5764 5766 5770 5772 5771 5769 5766 5763 5762 5762 5761 5760 5759 5758 5757 5756 5755 5754 5752 5750 5750 5749 5749 5748 5748 5747 5746 5746 5747 5747 5747 5747
5797 5796 5786 5779 5769 5764 5761 5768 5769 5772 5775 5774 5769 5769 5764 5758 5762 5763 5766 5768 5769 5768 5766 5763 5760 5760 5759 5758 5757 5756 5755 5755 5753 5752 5750 5749 5748 5747 5746 5746 5745 5745 5744 5743 5743 5743 5743 5744 5744
5793 5787 5782 5772 5761 5766 5768 5769 5771 5768 5769 5772 5769 5761 5761 5763 5764 5764 5765 5766 5766 5765 5763 5760 5757 5757 5755 5755 5754 5753 5752 5751 5750 5749 5747 5746 5745 5744 5743 5742 5742 5741 5741 5741 5740 5740 5740 5741 5741
5789 5779 5768 5760 5759 5764 5770 5772 5773 5767 5764 5765 5765 5755 5752 5759 5765 5764 5763 5763 5763 5762 5761 5757 5754 5753 5752 5751 5751 5750 5749 5748 5746 5745 5744 5743 5741 5740 5739 5739 5739 5738 5738 5738 5738 5738 5738 5738 5738
5776 5773 5759 5754 5755 5760 5766 5770 5769 5764 5761 5761 5760 5753 5748 5757 5759 5759 5760 5760 5759 5758 5757 5755 5750 5750 5749 5748 5747 5746 5746 5745 5743 5742 5741 5739 5738 5737 5737 5736 5736 5735 5736 5735 5735 5735 5735 5735 5735
5769 5764 5757 5756 5752 5753 5760 5767 5764 5761 5756 5757 5760 5749 5747 5752 5755 5757 5757 5756 5756 5755 5755 5754 5752 5749 5746 5745 5744 5743 5743 5742 5741 5739 5738 5737 5736 5735 5734 5734 5733 5733 5733 5733 5733 5732 5732 5732 5732
5772 5764 5754 5754 5750 5751 5759 5762 5762 5760 5754 5760 5760 5748 5743 5749 5753 5754 5753 5753 5752 5752 5752 5751 5750 5749 5748 5745 5741 5740 5740 5739 5738 5737 5735 5735 5734 5733 5733 5732 5731 5731 5731 5730 5730 5730 5729 5729 5729
5769 5755 5748 5750 5750 5751 5758 5755 5757 5762 5757 5755 5756 5755 5753 5752 5751 5749 5747 5748 5747 5748 5749 5749 5749 5747 5746 5745 5741 5740 5738 5737 5736 5736 5734 5735 5737 5736 5734 5731 5729 5728 5728 5728 5727 5727 5727 5727 5727
5759 5747 5748 5755 5758 5755 5755 5754 5753 5752 5748 5746 5747 5750 5751 5748 5747 5745 5744 5744 5744 5745 5747 5748 5748 5746 5745 5743 5742 5740 5739 5737 5737 5737 5735 5736 5735 5733 5732 5728 5727 5726 5726 5725 5725 5725 5725 5727 5729
5754 5746 5749 5753 5757 5756 5751 5750 5752 5747 5741 5744 5742 5743 5745 5744 5744 5744 5744 5744 5744 5746 5745 5747 5747 5745 5744 5742 5741 5740 5738 5736 5736 5735 5733 5733 5733 5732 5731 5731 5729 5727 5726 5727 5724 5726 5727 5727 5726
5746 5745 5748 5749 5751 5751 5749 5747 5744 5743 5744 5750 5749 5746 5743 5742 5742 5742 5742 5742 5743 5743 5744 5744 5745 5744 5742 5741 5739 5738 5737 5736 5735 5733 5733 5733 5732 5731 5730 5730 5728 5727 5725 5723 5724 5723 5724 5725 5725
5740 5739 5742 5745 5746 5746 5745 5742 5739 5738 5745 5748 5746 5742 5740 5740 5741 5742 5744 5743 5742 5741 5741 5743 5743 5743 5741 5738 5737 5737 5735 5735 5733 5730 5731 5731 5731 5730 5729 5728 5724 5725 5724 5723 5722 5723 5722 5721 5721
5736 5736 5737 5739 5740 5740 5736 5735 5735 5733 5741 5741 5739 5738 5738 5738 5738 5739 5739 5740 5741 5741 5742 5741 5741 5740 5739 5738 5738 5736 5734 5731 5732 5730 5729 5729 5728 5728 5726 5726 5723 5722 5721 5720 5720 5720 5718 5718 5717
5734 5728 5727 5730 5733 5733 5732 5723 5727 5733 5736 5734 5734 5735 5735 5735 5736 5737 5739 5740 5742 5742 5742 5740 5739 5739 5738 5737 5735 5734 5732 5732 5730 5728 5728 5727 5726 5726 5725 5724 5722 5720 5719 5718 5717 5717 5716 5715 5713
5727 5720 5713 5720 5726 5727 5723 5712 5724 5731 5731 5728 5730 5731 5730 5731 5734 5737 5739 5741 5742 5741 5740 5739 5738 5737 5735 5734 5732 5732 5731 5729 5728 5726 5725 5726 5725 5724 5722 5721 5720 5718 5717 5716 5714 5714 5713 5712 5711
5713 5710 5709 5711 5721 5721 5718 5712 5721 5727 5727 5724 5725 5727 5727 5728 5731 5735 5738 5739 5740 5739 5739 5737 5736 5734 5733 5731 5729 5729 5728 5726 5725 5724 5723 5723 5722 5722 5720 5718 5717 5717 5715 5715 5713 5712 5712 5708 5706
5704 5707 5706 5707 5715 5716 5712 5713 5718 5722 5722 5722 5723 5724 5725 5726 5729 5733 5736 5737 5736 5736 5737 5736 5733 5732 5730 5729 5729 5727 5726 5725 5723 5722 5721 5720 5720 5719 5718 5717 5716 5715 5713 5712 5711 5708 5707 5706 5706
5708 5705 5703 5706 5715 5711 5709 5711 5715 5718 5718 5719 5721 5722 5724 5726 5731 5733 5733 5734 5734 5733 5733 5732 5731 5730 5728 5727 5727 5725 5724 5723 5722 5720 5718 5718 5718 5717 5716 5716 5714 5713 5712 5710 5710 5707 5706 5705 5705
5704 5699 5699 5702 5710 5709 5707 5709 5716 5717 5717 5720 5721 5722 5725 5726 5727 5728 5730 5732 5733 5732 5732 5731 5731 5729 5729 5727 5728 5725 5723 5722 5720 5718 5717 5717 5717 5716 5716 5715 5713 5711 5709 5709 5708 5706 5706 5704 5704
5698 5697 5697 5696 5700 5705 5701 5701 5708 5714 5717 5719 5721 5724 5727 5727 5727 5727 5729 5730 5731 5731 5731 5731 5730 5728 5728 5726 5725 5723 5722 5721 5720 5718 5716 5715 5715 5714 5714 5713 5713 5711 5711 5709 5707 5707 5704 5703 5703
5691 5698 5697 5694 5692 5691 5695 5688 5706 5713 5711 5714 5718 5721 5725 5728 5729 5730 5729 5729 5729 5731 5732 5732 5730 5729 5727 5726 5724 5723 5720 5719 5718 5718 5716 5715 5714 5713 5712 5712 5711 5711 5710 5708 5708 5707 5706 5704 5703
5694 5697 5695 5693 5690 5688 5693 5690 5705 5711 5706 5714 5720 5724 5727 5729 5730 5730 5730 5730 5731 5731 5730 5730 5730 5727 5725 5725 5723 5722 5721 5720 5719 5718 5716 5716 5714 5712 5711 5711 5710 5710 5709 5708 5707 5706 5707 5706 5705
5695 5691 5689 5689 5686 5678 5692 5690 5698 5711 5714 5720 5724 5727 5729 5731 5731 5731 5731 5730 5729 5729 5728 5727 5726 5724 5724 5723 5723 5722 5720 5719 5717 5716 5715 5715 5714 5713 5711 5710 5710 5710 5709 5708 5707 5706 5705 5705 5704
5691 5683 5672 5671 5671 5680 5695 5690 5702 5721 5726 5727 5728 5731 5732 5733 5732 5730 5729 5728 5727 5726 5726 5726 5725 5723 5722 5722 5723 5722 5722 5721 5719 5718 5716 5715 5715 5713 5712 5711 5710 5710 5708 5707 5707 5706 5706 5705 5704
5689 5687 5674 5666 5670 5682 5688 5691 5711 5724 5728 5732 5734 5736 5735 5734 5733 5731 5731 5729 5727 5727 5726 5726 5725 5724 5723 5722 5723 5723 5722 5721 5720 5718 5717 5716 5715 5713 5712 5711 5710 5709 5708 5707 5706 5707 5706 5706 5705
5686 5686 5691 5682 5680 5677 5690 5701 5715 5724 5724 5727 5730 5733 5734 5734 5733 5732 5731 5730 5729 5728 5726 5726 5726 5725 5723 5723 5722 5722 5722 5720 5719 5718 5717 5716 5715 5713 5711 5711 5710 5708 5707 5707 5707 5706 5705 5704 5704
5692 5690 5681 5675 5668 5670 5685 5695 5703 5712 5717 5722 5725 5729 5733 5734 5734 5733 5731 5730 5730 5730 5728 5727 5727 5726 5724 5723 5722 5721 5721 5719 5718 5718 5716 5716 5714 5712 5711 5712 5711 5709 5708 5707 5706 5705 5703 5703 5700
5681 5681 5682 5680 5679 5673 5675 5693 5716 5716 5720 5723 5727 5731 5733 5734 5734 5733 5732 5731 5730 5729 5727 5726 5726 5726 5724 5723 5722 5720 5719 5718 5717 5716 5714 5714 5713 5713 5711 5711 5711 5710 5709 5707 5705 5705 5703 5703 5702
5690 5688 5685 5673 5675 5680 5680 5693 5721 5721 5723 5725 5728 5731 5734 5735 5735 5733 5732 5731 5729 5728 5727 5726 5726 5725 5723 5722 5721 5720 5718 5717 5717 5715 5714 5714 5713 5713 5712 5710 5710 5709 5707 5706 5704 5702 5701 5701 5700